Regional Weather Roundup
Issued by NWS Grand Forks, ND

Home | Current Version | Previous Version | Text Only | Print | Product List | Glossary On
Versions: 1 2 3 4 5 6 7 8 9 10 11 12 13 14 15 16 17 18 19 20 21 22 23 24 25 26 27 28 29 30 31 32 33 34 35 36 37 38 39 40 41 42 43 44 45 46 47 48 49 50
000
ASUS43 KFGF 181010
RWRFGF
PRAIRIE TO PINES  WEATHER ROUNDUP
NATIONAL WEATHER SERVICE EASTERN NORTH DAKOTA/GRAND FORKS ND
400 AM CST THU DEC 18 2014

 **SATELLITE DATA USED TO AUGMENT SKY COVER AT AUTOMATED STATIONS**
 *****  WEATHER ACROSS EASTERN NORTH DAKOTA  *****

CITY           SKY/WX    TMP DP  RH WIND       PRES   REMARKS
GRAND FORKS    PTCLDY     3   0  87 CALM      30.29F
GRAND FRKS AFB PTCLDY     2   1  93 S2        30.28F
DEVILS LAKE    PTCLDY     9   0  66 SE6       30.17F WCI  -1
FARGO          CLEAR      8   4  83 CALM      30.28F
WAHPETON ARPT  MOSUNNY    5   1  85 CALM      30.28F
$$

 ***** WEATHER ACROSS CENTRAL AND WESTERN NORTH DAKOTA  *****

CITY           SKY/WX    TMP DP  RH WIND       PRES   REMARKS
BISMARCK       CLOUDY    16  13  88 SE12      30.13F WCI   3
MINOT          MOCLDY    12   8  84 SE5       30.09F WCI   4
JAMESTOWN      CLOUDY    11   7  84 SE8       30.19F WCI  -1
MINOT AFB      CLOUDY    13  13  98 SE7       30.09F WCI   3
GARRISON         N/A     18  14  84 S12       30.07F WCI   5
WILLISTON      CLOUDY    21  16  81 SE5       30.02F WCI  15
DICKINSON      CLOUDY    20  16  84 S10       29.98F FOG     WCI   9
HETTINGER      CLOUDY    20  17  88 SE10      30.00F FOG     WCI   9
$$

 *****  OTHER AIRPORT OBSERVATIONS IN OUR AREA  *****

CITY           SKY/WX    TMP DP  RH WIND       PRES   REMARKS
WALHALLA         N/A     -2  -2 100 CALM      30.26F
GRAFTON AIRPOR NOT AVBL
VALLEY CITY AR PTSUNNY    7   7 100 CALM      30.22F
CANDO          FAIR       1   0  92 SE9       30.19F WCI -14
CAVALIER APRT  FAIR       5   1  85 S5        30.27F WCI  -4
GWINNER        SUNNY     12  12 100 MISG      30.24F
SHEYENNE NWR     N/A      2  -3  81 CALM      29.95S
ROLLA          FAIR       5   3  92 S9        30.14F WCI  -9
 ***** THE ABOVE OBSERVATIONS ARE NON NWS ARE NOT QUALITY
       CONTROLLED AND MAY MIS-REPORT RAIN FOR SNOW...
$$

  *****  WEATHER ACROSS NORTHERN MINNESOTA  *****

CITY           SKY/WX    TMP DP  RH WIND       PRES   REMARKS
FLAG ISLAND    MOCLDY     9   3  78 CALM      30.29F
WARROAD        MOCLDY     5   1  85 CALM      30.29S
ROSEAU         PTCLDY     5   0  78 CALM      30.28F
HALLOCK        PTCLDY     5   1  85 SE3       30.28S
THF RVR FALLS  PTCLDY     9   7  92 SE5       30.27F WCI   0
BAUDETTE       MOCLDY     6   1  80 CALM      30.29S
WASKISH        MOCLDY     1   0  92 CALM      30.29S
CROOKSTON      FAIR       9   7  92 SE6       30.30F WCI  -1
STEPHEN NDAWN    N/A      7   3  85 SE3         N/A
GREENBUSH NDAW   N/A      7   3  85 E3          N/A
$$
  *****  WEATHER ACROSS CENTRAL AND WEST MINNESOTA  *****

CITY           SKY/WX    TMP DP  RH WIND       PRES   REMARKS
FOSSTON        PTCLDY     3   1  92 CALM      30.27F
BEMIDJI        PTCLDY     2  -1  85 CALM      30.26F
PARK RAPIDS    PTCLDY     5   1  83 E3        30.25F
ELBOW LAKE     FAIR       9   6  90 SE6       30.27F WCI  -1
WADENA         PTCLDY     1   0  92 CALM      30.26F
DETROIT LAKES  PTCLDY    10   9  92 SE3       30.26F
MOORHEAD       CLEAR      9   9 100 CALM      30.28F
FERGUS FALLS   PTCLDY    10   7  85 E5        30.31F WCI   2
MORRIS MN      PTCLDY     7   3  85 SE5       30.27F WCI  -2
STAPLES        PTCLDY     3   1  92 CALM      30.28F
$$
  *****  WEATHER ELSEWHERE ACROSS MINNESOTA  *****

CITY           SKY/WX    TMP DP  RH WIND       PRES   REMARKS
DULUTH         LGT SNOW  18  14  84 N3        30.28S
INTRNTL FALLS  PTCLDY     0  -5  79 CALM      30.31F
ELY            CLOUDY     0  -4  85 CALM      30.31F
CLOQUET        FLURRIES  18  14  86 CALM      30.30S
WHEATON        PTCLDY     1   0  92 CALM      30.29F
BRAINERD       PTCLDY     1  -3  83 CALM      30.30F
HIBBING        CLOUDY    13   8  81 CALM      30.29F
ALEXANDRIA     PTCLDY     8   5  87 SE3       30.27S
SAINT CLOUD    PTCLDY    11   6  81 NE6       30.30F WCI   1
MINNEAPOLIS    MOCLDY    12   9  87 CALM      30.33S
$$

  *****  WEATHER ACROSS SOUTH DAKOTA  *****

CITY           SKY/WX    TMP DP  RH WIND       PRES   REMARKS
SIOUX FALLS    CLOUDY    18  14  84 E5        30.22F WCI  11
BROOKINGS      NOT AVBL
WATERTOWN      CLOUDY    12   7  80 SE5       30.19F WCI   4
HURON          CLOUDY    17  13  84 SE5       30.21S WCI  10
SISSETON         N/A      4   1  88 CALM      30.25F
ABERDEEN       CLOUDY    17  12  80 S7        30.21F WCI   8
MITCHELL       CLOUDY    20  16  84 SE6       30.21F WCI  12
PIERRE         CLOUDY    20  18  92 SE10      30.11F WCI   9
MOBRIDGE       CLOUDY    19  16  88 SE7       30.10F FOG     WCI  10
RAPID CITY     CLOUDY    23  20  88 S9        30.00R WCI  13
$$

  *****  SOME WEATHER IN NEARBY STATES *****

CITY           SKY/WX    TMP DP  RH WIND       PRES   REMARKS
GLASGOW MT     CLOUDY    23  20  88 SE10      29.95S WCI  12
GREAT FALLS MT PTCLDY    31  24  75 S13       29.88S WCI  21
CHEYENNE WY    CLEAR     23  16  74 W7        29.97R WCI  15
SCOTTSBLUFF NE FOG       11   9  92 NW8       30.02S VSB 1/4 WCI  -1
OMAHA NE       CLOUDY    28  20  71 E6        30.25S WCI  22
DES MOINES IA  CLOUDY    23  16  74 E3        30.28S
DAVENPORT IA   PTCLDY    15  11  83 SW3       30.30F
CHICAGO IL     PTCLDY    20  14  77 CALM      30.27S
EAU CLAIRE WI  CLOUDY    21  16  81 W3        30.30S
LA CROSSE WI   CLOUDY    21  14  74 N3        30.32S
$$

  *****  SOME NATIONAL WEATHER *****

CITY           SKY/WX    TMP DP  RH WIND       PRES   REMARKS
LA GUARDIA NY  MOCLDY    39  24  55 NW20G29   29.91R
RALEIGH NC     PTCLDY    34  27  75 CALM      30.12R
ATLANTA GA     MOCLDY    38  32  79 NW12      30.11F
NEW ORLEANS LA MOCLDY    50  44  80 CALM      30.17S
OKLAHOMA CITY  CLOUDY    39  37  92 SE6       30.10R FOG
ALBUQUERQUE NM PTCLDY    31  29  92 S6        30.13R
SALT LAKE CITY PTCLDY    31  29  92 SE6       30.07R
LOS ANGELES CA MOCLDY    52  45  77 NE3       30.12R
BOISE ID       MOCLDY    37  31  78 S8        30.04R
SEATTLE WA     LGT RAIN  45  43  93 S6        29.94R VSB 1
$$

*** WEATHER ACROSS MANITOBA...SASKATCHEWAN AND ONTARIO ***
                ***ONTARIO***

CITY           SKY/WX    TMP DP  RH WIND       PRES   REMARKS
GERALDTON      CLEAR    -11 -15  84 CALM      30.30S
THUNDER BAY    CLEAR     -2  -6  84 SW6       30.38S WCI -14
SIOUX LOOKOUT  NOT AVBL
TORONTO        CLOUDY    30  27  86 NW13G20   30.04R WCI  20
BIG TROUT LK   CLEAR     -2  -4  92 SW5       30.24F WCI -12
PICKLE LAKE    NOT AVBL
DRYDEN         CLEAR     -2  -6  84 SE3       30.31S
KENORA         CLEAR      3  -2  78 SE6       30.28F WCI  -8
$$
                *** MANITOBA***

CITY           SKY/WX    TMP DP  RH WIND       PRES   REMARKS
BRANDON        CLEAR     -4  -8  84 E6        30.18S WCI -16
DAUPHIN        CLEAR     -2  -6  84 W3        30.16S
ISLAND LAKE    CLEAR     -2  -9  71 S3        30.22F
PILOT MOUND      N/A      0  -4  85 SE8         N/A  WCI -15
THE PAS        FLURRIES   5   3  92 SE5       30.08S WCI  -4
THOMPSON       FLURRIES   7   3  85 S7        30.08F WCI  -5
WINNIPEG       PTCLDY     7   3  85 S6        30.28F WCI  -3
LYNN LAKE      FLURRIES  14  12  92 SW8       29.97F WCI   3
CHURCHILL      CLEAR      5   3  92 W12       30.02S WCI -11
$$
                ***SASKATCHEWAN***

CITY           SKY/WX    TMP DP  RH WIND       PRES   REMARKS
ESTEVAN        FLURRIES  18  14  86 SE8       30.04F WCI   7
KINDERSLEY     FOG       18  16  93 W9        29.86S VSB 1/4 WCI   6
LLOYDMINSTER   CLOUDY    18  16  93 VRB2      29.85S FOG
PRINCE ALBERT  FLURRIES  18  14  86 SW8       29.97F WCI   7
REGINA         CLOUDY    18  18 100 S13       29.99F WCI   4
YORKTON        FLURRIES  16  12  86 S10       30.05F WCI   3
N. BATTLEFORD  CLOUDY    19  19 100 SE8       29.91F WCI   9
LA RONGE       CLOUDY    16  14  93 S5        29.95F WCI   9
SASKATOON      LGT SNOW  19  19 100 S9        29.94F FOG     WCI   9
SWIFT CURRENT  CLOUDY    23  23 100 S10       29.85S FOG     WCI  12
$$
NOTE: THESE ARE AUTOMATED STATIONS WITH LIMITED QUALITY CONTROL
      "FAIR" INDICATES FEW OR NO CLOUDS BELOW 12,000 FEET WITH NO
      SIGNIFICANT WEATHER AND/OR OBSTRUCTIONS TO VISIBILITY.
      SKY/WX - SKY CONDITION AND SIGNIFICANT WEATHER.
      TMP - AIR TEMPERATURE.    DP   - DEWPOINT TEMPERATURE.
      RH  - RELATIVE HUMIDITY.  PRES - PRESSURE.
      HX  - HEAT INDEX.         WCI  - WIND CHILL INDEX.
$



USA.gov is the U.S. government's official web portal to all federal, state and local government web resources and services.